Погода в Дэдэ-Сутом

Россия / Республика Бурятия     51°15′53″N   106°51′12″E
темп.,
°C
ветер,
м/с
пор.,
м/с
влажн.,
%
обл.,
%
осадки,
мм/ч
давл.,
гПа
погр.,
м
15 августа, пн
пн1523:00+16св00756 0.0 100611
02:00+15ююз22785 0.2 100611
05:00+13зюз11905 1.3 100710
08:00+17ююз22795 1.4 1008268
11:00+22юз22575 0.0 1007972
14:00+25юз33420 0.0 10041772
17:00+26юз45380 0.0 10021965
20:00+21ю22526 0.0 100211
16 августа, вт
вт1623:00+17ююз11700 0.3 100111
02:00+15с368356 1.1 1003233
05:00+13ссв3391100 0.6 100459
08:00+15ссз2386100 0.9 1004382
11:00+16ссз6777100 1.3 1005892
14:00+16с467060 1.4 1004723
17:00+16ссз3464100 0.0 1004644
20:00+13с1177100 0.0 100411
17 августа, ср
ср1723:00+13ссв1176100 0.0 100410
02:00+12с2278100 0.0 100627
05:00+9с2281100 0.0 100711
08:00+13ссз23655 0.0 1008311
11:00+18ссз554778 0.0 10071461
14:00+20с444082 0.0 10072131
17:00+19с343777 0.0 10061898
20:00+14с35520 0.0 100870
18 августа, чт
чт1823:00+10с226016 0.0 100919
02:00+9ссв2266100 0.0 100929
05:00+8св2270100 0.0 100940
08:00+11св2361100 0.0 1008208
11:00+16ссв2243100 0.0 1006794
14:00+19всв2336100 0.1 10031409
17:00+19зюз3241100 0.5 10031156
20:00+12сз2282100 1.8 100314
19 августа, пт
пт1923:00+8ссз7148393 5.8 1008686
02:00+7сз6128374 5.8 1011808
05:00+8сз51084100 0.0 10111028
08:00+10з357232 0.0 1012777
11:00+13зюз225588 0.0 10111122
14:00+16юз2244100 0.0 10081348
17:00+17з1240100 0.0 10061312
20:00+12с2256100 0.0 100511